• In Uzbekistan
  • List of Countries
  • For 7 days
  • Water Temperature
  • Satellite Maps
  • Weather Map
  • Weather Widgets
  • user-avatar
    Login

    Hourly Weather Lisburn

    Today, 21 October, Saturday

    Time Temperature Precipitation Wind Pressure Humidity
    00:00 +10°C° 0.6 mm 8 mps 738 mmHg 91%
    01:00 +10°C° 0 mm 8 mps 737 mmHg 90%
    02:00 +10°C° 0 mm 9 mps 736 mmHg 89%
    03:00 +8°C° 0 mm 9 mps 736 mmHg 87%
    04:00 +8°C° 0.1 mm 10 mps 735 mmHg 87%
    05:00 +9°C° 0.1 mm 10 mps 734 mmHg 87%
    06:00 +9°C° 0.1 mm 10 mps 733 mmHg 86%
    07:00 +10°C° 0.1 mm 9 mps 732 mmHg 87%
    08:00 +10°C° 0.1 mm 8 mps 732 mmHg 88%
    09:00 +11°C° 0.1 mm 8 mps 731 mmHg 89%
    10:00 +11°C° 0.2 mm 6 mps 732 mmHg 89%
    11:00 +12°C° 0.2 mm 5 mps 732 mmHg 89%
    12:00 +13°C° 0.2 mm 3 mps 732 mmHg 89%
    13:00 +13°C° 0.5 mm 5 mps 733 mmHg 88%
    14:00 +11°C° 0.5 mm 6 mps 734 mmHg 88%
    15:00 +11°C° 0.5 mm 8 mps 734 mmHg 88%
    16:00 +11°C° 0.1 mm 9 mps 736 mmHg 88%
    17:00 +9°C° 0.1 mm 10 mps 737 mmHg 88%
    18:00 +9°C° 0.1 mm 10 mps 738 mmHg 88%
    19:00 +9°C° 0.4 mm 11 mps 739 mmHg 87%
    20:00 +9°C° 0.4 mm 11 mps 741 mmHg 87%
    21:00 +9°C° 0.4 mm 11 mps 742 mmHg 87%
    22:00 +8°C° 0.4 mm 12 mps 743 mmHg 85%
    23:00 +8°C° 0.4 mm 12 mps 744 mmHg 83%

    Tomorrow, 22 October, Sunday

    Time Temperature Precipitation Wind Pressure Humidity
    00:00 +7°C° 0.4 mm 13 mps 745 mmHg 81%
    01:00 +7°C° 0.1 mm 13 mps 746 mmHg 81%
    02:00 +7°C° 0.1 mm 13 mps 747 mmHg 81%
    03:00 +7°C° 0.1 mm 13 mps 748 mmHg 81%
    04:00 +7°C° 0.1 mm 13 mps 749 mmHg 80%
    05:00 +7°C° 0.1 mm 12 mps 750 mmHg 78%
    06:00 +7°C° 0.1 mm 12 mps 750 mmHg 76%
    07:00 +7°C° 0 mm 11 mps 751 mmHg 77%
    08:00 +7°C° 0 mm 10 mps 752 mmHg 77%
    09:00 +7°C° 0 mm 9 mps 752 mmHg 77%
    10:00 +8°C° 0 mm 9 mps 753 mmHg 76%
    11:00 +10°C° 0 mm 9 mps 753 mmHg 75%
    12:00 +10°C° 0 mm 9 mps 754 mmHg 74%
    13:00 +10°C° 0.1 mm 9 mps 754 mmHg 76%
    14:00 +10°C° 0.1 mm 9 mps 754 mmHg 77%
    15:00 +10°C° 0.1 mm 9 mps 754 mmHg 78%
    16:00 +10°C° 0 mm 8 mps 755 mmHg 81%
    17:00 +9°C° 0 mm 7 mps 755 mmHg 83%
    18:00 +8°C° 0 mm 6 mps 755 mmHg 86%
    19:00 +8°C° 0 mm 6 mps 755 mmHg 88%
    20:00 +8°C° 0 mm 5 mps 755 mmHg 90%
    21:00 +8°C° 0 mm 4 mps 755 mmHg 92%
    22:00 +8°C° 0.2 mm 4 mps 755 mmHg 93%
    23:00 +9°C° 0.2 mm 5 mps 754 mmHg 93%

    Day after tomorrow, 23 October, Monday

    Time Temperature Precipitation Wind Pressure Humidity
    00:00 +9°C° 0.2 mm 5 mps 754 mmHg 94%
    01:00 +10°C° 0.5 mm 5 mps 753 mmHg 94%
    02:00 +10°C° 0.5 mm 5 mps 753 mmHg 95%
    03:00 +10°C° 0.5 mm 5 mps 753 mmHg 96%
    04:00 +11°C° 0.1 mm 4 mps 752 mmHg 96%
    05:00 +12°C° 0.1 mm 4 mps 752 mmHg 97%
    06:00 +12°C° 0.1 mm 3 mps 752 mmHg 97%
    07:00 +12°C° 0.1 mm 3 mps 752 mmHg 97%
    08:00 +12°C° 0.1 mm 3 mps 753 mmHg 97%
    09:00 +13°C° 0.1 mm 3 mps 753 mmHg 97%
    10:00 +13°C° 0 mm 4 mps 753 mmHg 91%
    11:00 +14°C° 0 mm 4 mps 754 mmHg 85%
    12:00 +14°C° 0 mm 4 mps 754 mmHg 79%
    13:00 +14°C° 0 mm 4 mps 754 mmHg 78%
    14:00 +14°C° 0 mm 3 mps 755 mmHg 78%
    15:00 +14°C° 0 mm 3 mps 755 mmHg 78%
    16:00 +13°C° 0 mm 3 mps 755 mmHg 82%
    17:00 +12°C° 0 mm 3 mps 754 mmHg 87%
    18:00 +11°C° 0 mm 4 mps 754 mmHg 91%
    19:00 +12°C° 0.1 mm 5 mps 754 mmHg 89%
    20:00 +12°C° 0.1 mm 5 mps 754 mmHg 87%
    21:00 +13°C° 0.1 mm 6 mps 754 mmHg 85%
    22:00 +12°C° 0.4 mm 7 mps 753 mmHg 86%
    23:00 +12°C° 0.4 mm 8 mps 753 mmHg 87%

    24 October, Tuesday

    Time Temperature Precipitation Wind Pressure Humidity
    00:00 +13°C° 0.4 mm 8 mps 752 mmHg 88%
    01:00 +13°C° 0.9 mm 8 mps 752 mmHg 90%
    02:00 +14°C° 0.9 mm 7 mps 752 mmHg 92%
    03:00 +15°C° 0.9 mm 6 mps 752 mmHg 94%
    04:00 +14°C° 0.3 mm 6 mps 752 mmHg 94%
    05:00 +13°C° 0.3 mm 5 mps 752 mmHg 94%
    06:00 +12°C° 0.3 mm 4 mps 752 mmHg 94%
    07:00 +12°C° 0 mm 4 mps 753 mmHg 94%
    08:00 +12°C° 0 mm 4 mps 754 mmHg 94%
    09:00 +12°C° 0 mm 4 mps 754 mmHg 93%
    10:00 +12°C° 0 mm 4 mps 755 mmHg 93%
    11:00 +12°C° 0 mm 4 mps 755 mmHg 92%
    12:00 +13°C° 0 mm 4 mps 755 mmHg 91%
    13:00 +13°C° 0 mm 4 mps 755 mmHg 91%
    14:00 +13°C° 0 mm 3 mps 755 mmHg 91%
    15:00 +13°C° 0 mm 3 mps 755 mmHg 90%
    16:00 +13°C° 0 mm 3 mps 755 mmHg 92%
    17:00 +12°C° 0 mm 3 mps 755 mmHg 93%
    18:00 +12°C° 0 mm 3 mps 756 mmHg 95%
    19:00 +12°C° 0 mm 3 mps 756 mmHg 95%
    20:00 +12°C° 0 mm 3 mps 756 mmHg 96%
    21:00 +11°C° 0 mm 3 mps 756 mmHg 96%
    22:00 +11°C° 0 mm 3 mps 756 mmHg 96%
    23:00 +11°C° 0 mm 3 mps 757 mmHg 96%

    25 October, Wednesday

    Time Temperature Precipitation Wind Pressure Humidity
    00:00 +10°C° 0 mm 3 mps 757 mmHg 96%
    01:00 +10°C° 0 mm 3 mps 757 mmHg 96%
    02:00 +10°C° 0 mm 3 mps 757 mmHg 95%
    03:00 +9°C° 0 mm 3 mps 757 mmHg 95%
    04:00 +9°C° 0 mm 2 mps 757 mmHg 95%
    05:00 +9°C° 0 mm 2 mps 758 mmHg 94%
    06:00 +9°C° 0 mm 2 mps 758 mmHg 94%
    07:00 +9°C° 0 mm 2 mps 758 mmHg 93%
    08:00 +10°C° 0 mm 2 mps 759 mmHg 92%
    09:00 +10°C° 0 mm 2 mps 759 mmHg 91%
    10:00 +12°C° 0 mm 2 mps 759 mmHg 87%
    11:00 +13°C° 0 mm 2 mps 759 mmHg 83%
    12:00 +14°C° 0 mm 2 mps 759 mmHg 79%
    13:00 +14°C° 0 mm 2 mps 759 mmHg 79%
    14:00 +15°C° 0 mm 2 mps 759 mmHg 79%
    15:00 +15°C° 0 mm 2 mps 759 mmHg 80%
    16:00 +14°C° 0 mm 2 mps 759 mmHg 83%
    17:00 +12°C° 0 mm 2 mps 759 mmHg 87%
    18:00 +10°C° 0 mm 2 mps 759 mmHg 91%
    19:00 +10°C° 0.3 mm 2 mps 759 mmHg 91%
    20:00 +11°C° 0.3 mm 3 mps 759 mmHg 91%
    21:00 +11°C° 0.3 mm 3 mps 759 mmHg 92%
    22:00 +11°C° 0.5 mm 3 mps 759 mmHg 94%
    23:00 +12°C° 0.5 mm 4 mps 759 mmHg 95%

    26 October, Thursday

    Time Temperature Precipitation Wind Pressure Humidity
    00:00 +12°C° 0.5 mm 4 mps 758 mmHg 97%
    01:00 +12°C° 0.1 mm 4 mps 758 mmHg 97%
    02:00 +12°C° 0.1 mm 5 mps 758 mmHg 97%
    03:00 +13°C° 0.1 mm 5 mps 757 mmHg 96%
    04:00 +12°C° 0 mm 5 mps 757 mmHg 96%
    05:00 +12°C° 0 mm 4 mps 757 mmHg 95%
    06:00 +12°C° 0 mm 4 mps 757 mmHg 95%
    07:00 +12°C° 0 mm 4 mps 757 mmHg 95%
    08:00 +12°C° 0 mm 5 mps 757 mmHg 95%
    09:00 +12°C° 0 mm 5 mps 757 mmHg 95%
    10:00 +13°C° 0 mm 5 mps 757 mmHg 93%
    11:00 +14°C° 0 mm 5 mps 757 mmHg 92%
    12:00 +14°C° 0 mm 6 mps 757 mmHg 90%
    13:00 +14°C° 0 mm 5 mps 757 mmHg 90%
    14:00 +15°C° 0 mm 5 mps 757 mmHg 90%
    15:00 +15°C° 0 mm 5 mps 757 mmHg 91%
    16:00 +14°C° 0 mm 5 mps 757 mmHg 93%
    17:00 +14°C° 0 mm 4 mps 757 mmHg 94%
    18:00 +13°C° 0 mm 4 mps 757 mmHg 96%
    19:00 +13°C° 0 mm 4 mps 757 mmHg 96%
    20:00 +13°C° 0 mm 4 mps 757 mmHg 96%
    21:00 +12°C° 0 mm 4 mps 757 mmHg 97%
    22:00 +12°C° 0 mm 4 mps 757 mmHg 96%
    23:00 +12°C° 0 mm 4 mps 757 mmHg 96%
    Show more